Regional Weather Roundup
Issued by NWS

Home | Current Version | Previous Version | Graphics & Text | Print | Product List | Glossary On
Versions: 1 2 3 4 5 6 7 8 9 10 11 12 13 14 15 16 17 18 19 20 21 22 23 24 25 26 27 28 29 30 31 32 33 34 35 36 37 38 39 40 41 42 43 44 45 46 47 48 49 50
429
ASUS43 KDTX 201110
RWRMI
MICHIGAN HOURLY REGIONAL WEATHER ROUNDUP
NATIONAL WEATHER SERVICE DETROIT/PONTIAC MI
600 AM EST TUE FEB 20 2018

NOTE: "FAIR" INDICATES FEW OR NO CLOUDS BELOW 12,000 FEET WITH NO
SIGNIFICANT WEATHER AND/OR OBSTRUCTION TO VISIBILITY.

MIZ047>049-052>055-059>063-066>070-074>076-081>083-201200-
SOUTHEAST LOWER MICHIGAN

CITY           SKY/WX    TMP DP  RH WIND       PRES   REMARKS
ADRIAN         CLOUDY    52  52 100 SW12      29.97S
ALMA           RAIN      51  51 100 S8G16     29.88R VSB 1/2
ANN ARBOR      CLOUDY    53  53 100 S6        29.96R
BAD AXE        RAIN      51  51 100 SW7       29.90R
CARO           RAIN      55  55 100 S10       29.90R
DETROIT CITY   LGT RAIN  54  53  97 SW7       29.96S
DETROIT        CLOUDY    51  50  96 S6        29.96F
FLINT          RAIN      55  54  96 S15       29.92R
GROSSE ILE     CLOUDY    45  45  99 S10G18    29.96S FOG
HILLSDALE      CLOUDY    55  54  94 S12       29.96R
HOWELL         RAIN      55  55  97 S7        29.93S

CITY           SKY/WX    TMP DP  RH WIND       PRES   REMARKS
JACKSON        LGT RAIN  58  56  93 S12       29.95R
LAMBERTVILLE   CLOUDY    60  55  83 S10       29.97F
LANSING        LGT RAIN  56  56 100 S10       29.91S
LAPEER         RAIN      55  54  97 SW12      29.93R
MASON          CLOUDY    56  53  88 S7        29.93R
MONROE         LGT RAIN  60  55  83 S15G24    29.96S
MT. CLEMENS    LGT RAIN  50  50 100 S8        29.96R FOG
PONTIAC        RAIN      55  55 100 S6        29.94S FOG
PORT HOPE        N/A     38  37  97 CALM      29.86F
PORT HURON     CLOUDY    54  52  94 S8        29.96F FOG
TRI CITIES     LGT RAIN  47  45  93 S12       29.88S VSB 1/4
MIDLAND        RAIN      37  37 100 CALM      29.87S VSB 1
TROY           RAIN      55  55  97 SW3       29.98S
SAGINAW HB     LGT RAIN  43  43 100 S8        29.89R VSB 1/4
$$
MIZ043>046-050>051-056>058-064>065-071>073-077>080-201200-
SOUTHWEST LOWER MICHIGAN

CITY           SKY/WX    TMP DP  RH WIND       PRES   REMARKS
BATTLE CREEK   RAIN      57  55  93 S15       29.91S FOG
BENTON HARBOR  RAIN      60  57  89 W14       29.88R FOG
BIG RAPIDS     SNOW      41  39  93 CALM      29.80F VSB 1/2
COLDWATER      HVY RAIN  58  58 100 S8        29.94R
FREMONT        LGT RAIN  57  56  97 SW17G26   29.81R
HOLLAND        RAIN      60  59  96 SW15      29.84S FOG
GRAND RAPIDS   LGT RAIN  57  55  93 S13       29.86R
IONIA          HVY RAIN  55  55 100 S15       29.87R
KALAMAZOO      HVY RAIN  56  54  93 S10       29.91S FOG
LUDINGTON      FOG       46  46 100 S5        29.77F VSB 1
MARSHALL       HVY RAIN  56  55  99 S7        29.93R
MOUNT PLEASANT RAIN      38  37  96 CALM      29.86S
MUSKEGON       LGT RAIN  57  55  93 S24G32    29.82R
SOUTH HAVEN    HVY RAIN  60  58  92 SW10G18   29.85F
$$
MIZ016>042-201200-
NORTHERN LOWER MICHIGAN

CITY           SKY/WX    TMP DP  RH WIND       PRES   REMARKS
ALPENA         CLOUDY    31  31 100 E9G17     29.91F FOG     WCI  23
BEAVER ISLAND  MIX PCPN  30  29  96 E13G21    29.82F WCI  20
BELLAIRE       CLOUDY    37  37 100 CALM      29.80F FOG
CADILLAC       DRIZZLE   35  35  99 E6        29.79F WCI  30
CHARLEVOIX     CLOUDY    35  35 100 E12G21    29.83F FOG     WCI  26
FRANKFORT      FOG       44  44 100 CALM      29.76F VSB 1
GAYLORD        CLOUDY    32  32 100 VRB5      29.83F FOG     WCI  27
GRAYLING       LGT RAIN  34  34 100 E6        29.83F FOG     WCI  28
HARBOR SPRINGS CLOUDY    31  30  99 E8        29.84F FOG     WCI  23
HOUGHTON LAKE  CLOUDY    36  35  96 E6        29.83F FOG     WCI  31
MANISTEE       LGT RAIN  46  46 100 VRB5      29.77S FOG
OSCODA         CLOUDY    34  33  97 N5        29.89S WCI  30
PELLSTON       CLOUDY    29  28  96 E13       29.87F FOG     WCI  19
ROGERS CITY    DRIZZLE   29  28  96 E7        29.92F WCI  22
TRAVERSE CITY  CLOUDY    40  39  97 CALM      29.78F FOG
$$
MIZ007>008-015-201200-
EASTERN UPPER MICHIGAN

CITY           SKY/WX    TMP DP  RH WIND       PRES   REMARKS
KINROSS        FLURRIES  20  18  92 E15       29.90F WCI   6
MACKINAC ISLAN CLOUDY    26  25  97 E16G28    29.88F FOG     WCI  14
NEWBERRY       CLOUDY    20  19  96 E12       29.86F FOG     WCI   8
S. S. MARIE    CLOUDY    20  17  88 E14       29.91F FOG     WCI   7
MUNISING         N/A     22  21  96 E5        29.85F WCI  16
$$
MIZ004>006-011>014-085-201200-
CENTRAL UPPER MICHIGAN

CITY           SKY/WX    TMP DP  RH WIND       PRES   REMARKS
MANISTIQUE     CLOUDY    26  24  94 E14G20    29.83F FOG     WCI  14
ESCANABA       LGT SNOW  24  22  91 NE8       29.82F FOG     WCI  15
MENOMINEE      CLOUDY    29  27  92 NE13      29.81S FOG     WCI  19
SAWYER-GWINN   CLOUDY    22  20  93 E5        29.81F WCI  15
$$
MIZ001>003-009>011-084-201200-
WESTERN UPPER MICHIGAN

CITY           SKY/WX    TMP DP  RH WIND       PRES   REMARKS
IRON MOUNTAIN  CLOUDY    24  21  88 NE5       29.79S FOG     WCI  18
HOUGHTON       CLOUDY    22  18  85 E20G38    29.83F FOG     WCI   7
COPPER HARBOR    N/A     22  18  85 SE12G18   29.89F WCI  10
IRONWOOD       CLOUDY    17  15  92 CALM      29.83S FOG
$$

ABBREVIATIONS USED IN REMARKS
   TC - TEMPERATURE IN CELSIUS
  WCI - WIND CHILL INDEX
   HX - HEAT INDEX
  VSB - VISIBILITY





USA.gov is the U.S. government's official web portal to all federal, state and local government web resources and services.